Regional Weather Roundup
Issued by NWS

Home | Current Version | Previous Version | Graphics & Text | Print | Product List | Glossary On
Versions: 1 2 3 4 5 6 7 8 9 10 11 12 13 14 15 16 17 18 19 20 21 22 23 24 25 26 27 28 29 30 31 32 33 34 35 36 37 38 39 40 41 42 43 44 45 46 47 48 49 50
000
ASUS43 KLMK 220110
RWRKY
KENTUCKY REGIONAL WEATHER ROUNDUP
NATIONAL WEATHER SERVICE LOUISVILLE KY
800 PM EST SUN DEC 21 2014

NOTE "FAIR" INDICATES FEW OR NO CLOUDS BELOW 12,000 FEET
WITH NO SIGNIFICANT WEATHER AND/OR OBSTRUCTIONS TO VISIBILITY.

KYZ001>023-026-027-061>063-070>075-220200-
WESTERN AND SOUTH CENTRAL KENTUCKY

CITY           SKY/WX    TMP DP  RH WIND       PRES   REMARKS
PADUCAH        CLEAR     33  28  81 E6        30.03F WCI  28
HENDERSON      CLEAR     34  25  69 E5        30.08F WCI  30
OWENSBORO      CLEAR     39  29  68 E7        30.09F WCI  34
HOPKINSVILLE   PTCLDY    42  30  62 E7        30.05F
BOWLING GREEN  CLOUDY    42  30  62 NE6       30.10S
GLASGOW        CLOUDY    41  30  65 CALM      30.10S
$$

KYZ024-025-028>034-038-045-046-053-220200-
NORTH CENTRAL KENTUCKY

CITY           SKY/WX    TMP DP  RH WIND       PRES   REMARKS
LOUISVILLE/SDF PTCLDY    36  28  73 NE5       30.13F WCI  32
LOUISVILLE/LOU CLEAR     36  28  73 E5        30.14F WCI  32
FORT KNOX      CLEAR     33  27  79 NE5       30.10F WCI  28
$$

KYZ035>037-039>044-047>052-055>060-089>105-220200-
NORTHEAST KENTUCKY

CITY           SKY/WX    TMP DP  RH WIND       PRES   REMARKS
LEXINGTON      PTCLDY    32  27  81 NE9       30.13S WCI  24
COVINGTON      PTCLDY    31  23  72 E6        30.16R WCI  25
FRANKFORT      CLEAR     32  27  81 E7        30.13S WCI  26
$$

KYZ054-064>069-076>088-106>120-220200-
SOUTHEAST KENTUCKY

CITY           SKY/WX    TMP DP  RH WIND       PRES   REMARKS
JACKSON        CLEAR     37  26  64 NE6       30.12S WCI  32
LONDON         CLEAR     37  26  64 NE3       30.12R
SOMERSET       CLOUDY    36  28  75 CALM      30.13R
MIDDLESBORO    CLOUDY    39  34  84 CALM      30.12S
MONTICELLO     CLEAR     29  25  85 CALM      30.14R
$$




USA.gov is the U.S. government's official web portal to all federal, state and local government web resources and services.